Regional Weather Roundup
Issued by NWS

Home | Current Version | Previous Version | Text Only | Print | Product List | Glossary Off
Versions: 1 2 3 4 5 6 7 8 9 10 11 12 13 14 15 16 17 18 19 20 21 22 23 24 25 26 27 28 29 30 31 32 33 34 35 36 37 38 39 40 41 42 43 44 45 46 47 48 49 50

000
ASUS45 KTFX 120410
RWRMT
MONTANA REGIONAL WEATHER ROUNDUP
NATIONAL WEATHER SERVICE GREAT FALLS MT
900 PM MST THU FEB 11 2016

NOTE: "FAIR" INDICATES FEW OR NO CLOUDS BELOW 12000 FEET WITH NO
SIGNIFICANT WEATHER AND/OR OBSTRUCTIONS TO VISIBILITY.

MTZ001>007-043-120500-
WEST OF THE DIVIDE

CITY           SKY/WX    TMP DP  RH WIND       PRES   REMARKS
KALISPELL      CLOUDY    35  31  85 CALM      30.25S
MISSOULA       LGT RAIN  40  33  76 CALM      30.27R
BUTTE          CLOUDY    35  30  82 CALM      30.27F
MULLAN PASS    LGT RAIN  35  31  85 SE5       30.22F
ANACONDA         N/A     41  28  60 S6        30.25F
DEER LODGE       N/A     37  30  75 CALM      30.27S
HAMILTON         N/A     43  36  75 CALM      30.25S
PLAINS           N/A     42  35  76 CALM      30.24F
THOMPSON FALLS   N/A     42  37  82 CALM      30.28F
$$

MTZ008-052>055-120500-
SOUTHWEST MONTANA

CITY           SKY/WX    TMP DP  RH WIND       PRES   REMARKS
BOZEMAN        CLOUDY    36  31  82 CALM      30.26S
DILLON         CLOUDY    38  29  70 SW15      30.26F WCI  29
ENNIS          CLOUDY    45  28  53 S18G29    30.32S
TWIN BRIDGES     N/A     37  28  70 E5        30.22S
$$

MTZ009-010-012-014-046-048-049-054-120500-
EAST SLOPES AND CENTRAL MONTANA

CITY           SKY/WX    TMP DP  RH WIND       PRES   REMARKS
CUT BANK       MOCLDY    35  29  78 S5        30.26R
GREAT FALLS    PTCLDY    36  30  79 NE5       30.26S
MALMSTROM AFB  CLOUDY    36  31  82 NE5       30.27S
HELENA         PTCLDY    42  27  55 CALM      30.23S
CHOTEAU          N/A     36  30  80 CALM      30.27S
CONRAD           N/A     30  28  92 N1        30.26R
$$

MTZ011-013-016-021-045-047-050-051-120500-
NORTH CENTRAL MONTANA

CITY           SKY/WX    TMP DP  RH WIND       PRES   REMARKS
HAVRE          CLOUDY    32  30  92 SW5       30.27R
LEWISTOWN      CLOUDY    39  30  70 W10       30.25R
N BAR RANCH      N/A     37  27  65 VRB3      30.26R
CHINOOK          N/A     30  28  93 CALM      30.27S
$$

MTZ017>020-022>027-061-062-120500-
NORTHEAST MONTANA

CITY           SKY/WX    TMP DP  RH WIND       PRES   REMARKS
GLASGOW        CLOUDY    31  25  78 N3        30.27R
JORDAN           N/A     31  29  92 CALM      30.25S
SIDNEY         CLOUDY    25  18  74 NE6       30.31R WCI  18
WOLF POINT     CLOUDY    29  21  72 E3        30.31R
PLENTYWOOD       N/A     18  14  86 N8        30.31R WCI   7
POPLAR           N/A     25  19  80 CALM      30.32R
SCOBEY           N/A     21  12  68 N7        30.25R WCI  12
$$

MTZ028>42-056>058-120500-
SOUTHCENTRAL AND SOUTHEAST MONTANA

CITY           SKY/WX    TMP DP  RH WIND       PRES   REMARKS
BAKER          CLOUDY    28  22  78 N9        30.24R WCI  19
BILLINGS       CLOUDY    44  23  43 NE6       30.24R
LIVINGSTON     CLOUDY    44  24  45 CALM      30.23S
MILES CITY     CLOUDY    31  26  82 NE5       30.26R
EKALAKA          N/A     26  22  85 NW5       30.16R
FORSYTH          N/A     34  30  86 CALM      30.26R
LAUREL           N/A     46  20  36 N1        30.20R
ROUNDUP          N/A     39  28  65 CALM      30.13R
$$

REGIONAL REPORTS...DAKOTAS

CITY           SKY/WX    TMP DP  RH WIND       PRES   REMARKS
WILLISTON      CLOUDY    20  16  84 N3        30.31R
MINOT          CLOUDY    19  10  68 NW7       30.28R WCI  10
DICKINSON      CLOUDY    22  18  85 N10       30.22R WCI  11
BEACH          CLOUDY    23  23 100 CALM      30.27R
CROSBY         FLURRIES  18  18 100 NW8       30.33R WCI   7
TIOGA          CLOUDY    18  18 100 N9        30.32R WCI   6
WATFORD CITY   CLOUDY    19  16  86 CALM      30.30R
BISMARCK       MOCLDY    21  13  71 N7        30.29S WCI  12
GRAND FORKS    CLOUDY    11   5  77 NW9       30.31R WCI  -2
FARGO          CLOUDY    12   6  77 NW8       30.29R WCI   0
BUFFALO SD       N/A     30  25  81 N8        30.15R WCI  22
RAPID CITY     CLOUDY    32  29  88 N6        30.22R WCI  26
$$

REGIONAL REPORTS...WYOMING/IDAHO/WASHINGTON

CITY           SKY/WX    TMP DP  RH WIND       PRES   REMARKS
GILLETTE       CLEAR     32  25  75 W6        30.21R WCI  26
SHERIDAN       CLEAR     37  26  64 W9        30.23R WCI  30
BUFFALO WY     CLOUDY    34  24  67 W6        30.23S WCI  29
CODY           CLOUDY    45  18  33 CALM      30.24R
YELLOWSTONE LA   N/A     33  21  61 VRB5      30.37R
IDAHO FALLS    CLOUDY    28  24  85 NE3       30.37F
SALMON         CLOUDY    30  25  80 CALM      30.37R
BOISE          MOCLDY    37  33  85 SE7       30.31F WCI  32
SPOKANE        LGT RAIN  41  37  86 NE5       30.22F
$$

REGIONAL REPORTS...ALBERTA

CITY           SKY/WX    TMP DP  RH WIND       PRES   REMARKS
EDMONTON       CLOUDY    16  10  79 E8        30.35R WCI   5
CALGARY        MOCLDY    37  28  70 E3        30.25R
LETHBRIDGE     MOCLDY    32  30  93 S6        30.26R WCI  26
MEDICINE HAT   CLOUDY    36  32  87 NW10      30.27R WCI  28
WATERTON GATE    N/A     41  23  48 SW13G23     N/A
CARDSTON         N/A     34  28  80 SE3         N/A
MILK RIVER       N/A     30  28  93 N1          N/A
ONEFOUR          N/A     34  32  93 NW9         N/A  WCI  26
$$

REGIONAL REPORTS...SASKATCHEWAN

CITY           SKY/WX    TMP DP  RH WIND       PRES   REMARKS
SWIFT CURRENT  CLOUDY    14  12  92 E14       30.30R WCI  -1
REGINA         CLOUDY     7   3  85 N9        30.37R WCI  -7
SASKATOON      PTCLDY     5   1  85 NE7       30.46R WCI  -7
CYPRESS HILLS    N/A     28  27  93 NW5         N/A
VAL MARIE        N/A     25  23  93 NE5         N/A
ROCKGLEN         N/A     16  16 100 N6          N/A  WCI   7
$$



USA.gov is the U.S. government's official web portal to all federal, state and local government web resources and services.